[[{"header":{"parameterUnit":"m.s-1","parameterCategory":1,"la1":30.2991,"la2":30.254,"lo1":-89.0895,"lo2":-89.0444,"dy":0.0017,"dx":0.0017,"nx":28,"ny":28,"refTime":"2023-10-06T09:00:00:Z","depth":0,"parameterNumber":2,"parameterNumberName":"U-component_of_WINDS"},"data":[0,0,0,0,0,0,0,0,0,0,0,0,0,0,0,0,0,0,0,0,0,0,0,0,0,0,0,0,0,0,0,0,0,0,0,0,0,0,0,0,0,0,0,0,0,0,0,0,0,0,0,0,0,0,0,0,0,0,-0.9556,-0.9556,0,-0.9561,-0.9561,-0.9561,-0.9508,-0.9507,-0.9505,-0.9504,-0.9511,-0.9513,-0.9514,0,0,0,0,0,0,0,0,0,0,0,0,0,-0.9503,-0.9504,-0.9556,-0.9556,-0.9557,-0.9561,-0.9561,-0.9561,-0.9508,-0.9506,-0.9505,-0.9503,-0.9511,-0.9512,-0.9514,0,0,0,0,0,0,0,0,0,0,0,0,0,-0.9519,-0.9505,-0.9556,-0.9531,-0.9528,-0.9561,-0.9561,-0.9561,-0.9509,-0.9506,-0.9504,-0.9502,-0.951,-0.9512,-0.9515,-0.9573,0,0,-0.9522,-0.9523,0,0,0,0,0,0,0,0,-0.9518,-0.9521,-0.9534,-0.9532,-0.953,-0.9532,-0.9545,-0.9565,-0.9509,-0.9516,-0.9504,-0.9501,-0.952,-0.9521,-0.9527,-0.9573,-0.9573,-0.9522,-0.9523,-0.9524,-0.9525,0,0,0,0,0,0,0,-0.9517,-0.952,-0.9558,-0.9535,-0.9532,-0.9519,-0.9519,-0.9548,-0.953,-0.9515,-0.9512,-0.9513,-0.9518,-0.9525,-0.9527,-0.9574,-0.9522,-0.9524,-0.9525,-0.9526,-0.9666,-0.9668,0,0,0,0,0,0,-0.9519,-0.952,-0.9558,-0.9558,-0.9518,-0.9522,-0.9522,-0.9533,-0.953,-0.9527,-0.9515,-0.951,-0.9522,-0.9524,-0.9527,-0.9595,-0.9524,-0.9526,-0.9528,-0.9664,-0.9667,-0.9669,0,0,0,0,0,0,-0.9518,-0.9523,-0.9558,-0.9538,-0.9541,-0.9525,-0.9539,-0.9535,-0.9541,-0.9529,-0.9526,-0.9525,-0.952,-0.9524,-0.9561,-0.9594,-0.9528,-0.953,-0.9661,-0.9665,-0.9668,-0.9731,0,0,0,0,0,0,-0.9517,-0.9523,-0.9545,-0.9539,-0.9543,-0.9593,-0.9541,-0.9536,-0.9545,-0.9539,-0.9538,-0.9535,-0.9519,-0.9558,-0.9564,-0.9596,-0.9531,-0.9658,-0.9663,-0.9667,-0.9726,-0.9736,-0.9745,0,0,0,0,0,-0.9515,-0.9564,-0.9547,-0.9552,-0.957,-0.9595,-0.9597,-0.9576,-0.9548,-0.957,-0.9562,-0.9535,-0.9589,-0.9562,-0.9568,-0.9602,-0.9656,-0.9661,-0.9667,-0.9722,-0.9734,-0.9745,0,0,0,0,0,0,-0.9577,-0.9563,-0.9544,-0.9591,-0.9594,-0.9585,-0.9613,-0.959,-0.9602,-0.9596,-0.957,-0.957,-0.9613,-0.961,-0.9581,-0.9657,-0.9618,-0.9624,-0.9658,-0.967,-0.9679,-0.968,-0.9533,0,0,0,0,0,-0.9595,-0.9616,-0.9602,-0.9646,-0.9648,-0.963,-0.964,-0.9623,-0.9626,-0.9627,-0.9622,-0.9626,-0.9643,-0.9656,-0.9671,-0.9724,-0.9723,-0.975,-0.976,-0.9768,-0.9775,-0.9802,-0.9814,-0.9686,-0.9686,-0.9686,0,0,-0.9635,-0.963,-0.9645,-0.9658,-0.9658,-0.9681,-0.9632,-0.9658,-0.9674,-0.9632,-0.9667,-0.9663,-0.9665,-0.9711,-0.973,-0.9711,-0.9809,-0.9774,-0.9781,-0.9783,-0.9809,-0.9821,-0.9831,-0.969,-0.9689,-0.9689,0,0,-0.9719,-0.9717,-0.9753,-0.9753,-0.9753,-0.974,-0.9749,-0.9743,-0.9738,-0.9772,-0.974,-0.9759,-0.979,-0.9793,-0.9799,-0.988,-0.9856,-0.9885,-0.9936,-0.9963,-0.9973,-0.9982,-1.0012,-1.0023,-0.9891,-0.9892,-0.9892,0,-0.9769,-0.9801,-0.9774,-0.9802,-0.9808,-0.9768,-0.9804,-0.9806,-0.9812,-0.9818,-0.9794,-0.9831,-0.983,-0.9875,-0.9895,-0.99,-0.9909,-0.9887,-0.9974,-0.9982,-0.999,-1.0018,-1.003,-0.9895,-0.9895,-0.9894,-0.9894,0,-0.9863,-0.9885,-0.9913,-0.9918,-0.9928,-0.996,-0.9938,-0.995,-0.9932,-0.9921,-0.9956,-0.9952,-0.9966,-0.9975,-0.9958,-1.0018,-1.0005,-0.9978,-0.9938,-1.0006,-1.0033,-1.0043,-0.9901,-0.9899,-0.9898,-0.9897,0,0,-0.999,-0.9976,-0.9988,-0.9989,-0.9984,-1.0001,-1.003,-1.0042,-1.0054,-1.0058,-1.0082,-1.0107,-1.0081,-1.0088,-1.007,-1.0093,-1.0158,-1.0063,-1.0062,-1.0082,-1.0224,-1.0246,-1.0259,-1.014,-1.0142,-1.0144,-1.0224,0,-1.0073,-1.0122,-1.0097,-1.0149,-1.0169,-1.0129,-1.0154,-1.0154,-1.0144,-1.0159,-1.0148,-1.0167,-1.0131,-1.0134,-1.0155,-1.0146,-1.0186,-1.0139,-1.0164,-1.0165,-1.0167,-1.0272,-1.0296,-1.0373,-1.0234,-1.0236,-1.0237,0,-1.0178,-1.0184,-1.0238,-1.0228,-1.0235,-1.0258,-1.0266,-1.0281,-1.0279,-1.027,-1.0275,-1.0251,-1.0279,-1.0236,-1.0274,-1.0243,-1.0251,-1.0247,-1.0249,-1.0253,-1.0207,-1.0281,-1.0396,-1.0409,-1.0253,-1.0251,-1.025,0,-1.0267,-1.0289,-1.0324,-1.0325,-1.0314,-1.0331,-1.0327,-1.0323,-1.0331,-1.0338,-1.0343,-1.0353,-1.0359,-1.0367,-1.0346,-1.0317,-1.0387,-1.0343,-1.0381,-1.0382,-1.0401,-1.04,-1.0521,-1.0402,-1.0402,-1.0401,-1.0401,0,-1.0364,-1.0399,-1.0363,-1.0385,-1.0422,-1.0392,-1.043,-1.0422,-1.0418,-1.0438,-1.0403,-1.0422,-1.0392,-1.0408,-1.0391,-1.0425,-1.0428,-1.0422,-1.0417,-1.0426,-1.0427,-1.0433,-1.0429,-1.0404,-1.0404,-1.0403,-1.0403,0,-1.0472,-1.0449,-1.0485,-1.0469,-1.0466,-1.0495,-1.0482,-1.0501,-1.0487,-1.0512,-1.0516,-1.0494,-1.0511,-1.0489,-1.0505,-1.0493,-1.054,-1.0526,-1.0541,-1.0538,-1.0578,-1.0575,-1.0709,-1.0725,-1.0594,-1.0595,-1.0596,0,-1.0537,-1.0562,-1.0549,-1.0558,-1.0556,-1.0572,-1.0579,-1.055,-1.0559,-1.0557,-1.0577,-1.059,-1.0599,-1.0628,-1.0614,-1.0625,-1.0612,-1.0658,-1.0614,-1.0622,-1.0615,-1.0615,-1.0618,-1.0669,-1.067,-1.0671,-1.0672,0,-1.0655,-1.0641,-1.0653,-1.0659,-1.0668,-1.0672,-1.0674,-1.0684,-1.0652,-1.0664,-1.068,-1.0687,-1.07,-1.0714,-1.0721,-1.0717,-1.069,-1.0686,-1.0695,-1.0706,-1.0714,-1.0712,-1.0568,-1.0684,-1.0683,-1.0682,-1.0681,-1.0681,-1.0745,-1.0765,-1.0758,-1.0771,-1.0768,-1.0769,-1.0787,-1.0773,-1.0785,-1.0793,-1.0774,-1.0795,-1.079,-1.0796,-1.0794,-1.081,-1.079,-1.0804,-1.0808,-1.0813,-1.0819,-1.0709,-1.0811,-1.081,-1.081,-1.081,-1.081,0,-1.0862,-1.0855,-1.0866,-1.0868,-1.0878,-1.0848,-1.0848,-1.0859,-1.0877,-1.0874,-1.0882,-1.09,-1.0912,-1.0897,-1.0907,-1.0922,-1.091,-1.0926,-1.0926,-1.0926,-1.0836,-1.0827,-1.0936,-1.0936,-1.0936,-1.0935,-1.0935,-1.0935,-1.0925,-1.0958,-1.0943,-1.0973,-1.0965,-1.0984,-1.0986,-1.0987,-1.0984,-1.1005,-1.1014,-1.1003,-1.0996,-1.1004,-1.1014,-1.1009,-1.1015,-1.1036,-1.1027,-1.0944,-1.0932,-1.092,-1.0912,-1.1037,-1.1037,-1.1115,-1.1116,-1.1117]},{"header":{"parameterUnit":"m.s-1","parameterCategory":1,"la1":30.2991,"la2":30.254,"lo1":-89.0895,"lo2":-89.0444,"dy":0.0017,"dx":0.0017,"nx":28,"ny":28,"refTime":"2023-10-06T09:00:00:Z","depth":0,"parameterNumber":3,"parameterNumberName":"V-component_of_WINDS"},"data":[0,0,0,0,0,0,0,0,0,0,0,0,0,0,0,0,0,0,0,0,0,0,0,0,0,0,0,0,0,0,0,0,0,0,0,0,0,0,0,0,0,0,0,0,0,0,0,0,0,0,0,0,0,0,0,0,0,0,-6.2467,-6.2468,0,-6.2583,-6.2585,-6.2586,-6.2511,-6.2508,-6.2504,-6.2501,-6.2615,-6.2621,-6.2627,0,0,0,0,0,0,0,0,0,0,0,0,0,-6.2172,-6.2178,-6.2466,-6.2468,-6.2469,-6.2583,-6.2585,-6.2586,-6.2512,-6.2507,-6.2503,-6.2499,-6.2613,-6.262,-6.2627,0,0,0,0,0,0,0,0,0,0,0,0,0,-6.2296,-6.218,-6.2466,-6.2446,-6.2445,-6.2583,-6.2585,-6.2587,-6.2513,-6.2507,-6.2502,-6.2497,-6.261,-6.2619,-6.2628,-6.279,0,0,-6.2657,-6.2661,0,0,0,0,0,0,0,0,-6.2289,-6.2306,-6.2448,-6.2448,-6.2447,-6.2527,-6.2523,-6.2655,-6.2514,-6.2487,-6.2501,-6.2495,-6.2589,-6.26,-6.2633,-6.2796,-6.2801,-6.2658,-6.2664,-6.2668,-6.267,0,0,0,0,0,0,0,-6.228,-6.2301,-6.2512,-6.245,-6.2449,-6.2429,-6.2441,-6.2547,-6.2566,-6.2489,-6.2484,-6.2499,-6.2588,-6.2624,-6.2635,-6.2802,-6.2658,-6.2666,-6.2672,-6.2676,-6.3103,-6.3108,0,0,0,0,0,0,-6.2274,-6.2294,-6.2509,-6.2516,-6.2354,-6.2439,-6.2452,-6.2507,-6.2564,-6.2568,-6.2503,-6.2495,-6.2611,-6.2625,-6.2639,-6.2833,-6.2668,-6.2676,-6.2682,-6.3097,-6.3104,-6.311,0,0,0,0,0,0,-6.2268,-6.2294,-6.2504,-6.2404,-6.2429,-6.2449,-6.2512,-6.2512,-6.2548,-6.2575,-6.2578,-6.2537,-6.2607,-6.2626,-6.2754,-6.2836,-6.2681,-6.2689,-6.309,-6.3099,-6.3107,-6.3222,0,0,0,0,0,0,-6.226,-6.2292,-6.2356,-6.2406,-6.2435,-6.2619,-6.2517,-6.2518,-6.2565,-6.2556,-6.2608,-6.2612,-6.2605,-6.274,-6.2763,-6.2846,-6.2697,-6.3083,-6.3094,-6.3104,-6.3211,-6.3233,-6.3252,0,0,0,0,0,-6.225,-6.2382,-6.2359,-6.2386,-6.2515,-6.2624,-6.264,-6.2632,-6.2572,-6.2635,-6.2652,-6.261,-6.2823,-6.2754,-6.2779,-6.2866,-6.3078,-6.3091,-6.3104,-6.3201,-6.3229,-6.3252,0,0,0,0,0,0,-6.2339,-6.2388,-6.2364,-6.2517,-6.2567,-6.2611,-6.269,-6.2661,-6.2727,-6.2715,-6.27,-6.2712,-6.2846,-6.2868,-6.279,-6.3025,-6.2941,-6.2959,-6.3006,-6.3033,-6.3053,-6.3045,-6.2704,0,0,0,0,0,-6.2377,-6.2463,-6.2501,-6.2632,-6.2659,-6.2671,-6.2718,-6.2707,-6.2757,-6.2778,-6.2804,-6.2853,-6.2931,-6.2983,-6.3056,-6.3213,-6.3223,-6.3285,-6.3306,-6.3323,-6.3339,-6.3423,-6.3451,-6.3153,-6.3152,-6.3152,0,0,-6.2455,-6.2493,-6.2548,-6.2651,-6.2688,-6.2777,-6.2689,-6.2786,-6.2851,-6.2792,-6.2915,-6.2936,-6.2989,-6.3133,-6.3197,-6.3156,-6.3424,-6.3339,-6.3352,-6.336,-6.344,-6.3468,-6.3493,-6.3161,-6.316,-6.3158,0,0,-6.2643,-6.2681,-6.2794,-6.2834,-6.2893,-6.29,-6.2927,-6.2976,-6.2989,-6.3113,-6.307,-6.3145,-6.328,-6.332,-6.3358,-6.3561,-6.3524,-6.3585,-6.3694,-6.3777,-6.38,-6.3821,-6.3894,-6.392,-6.3601,-6.3601,-6.3601,0,-6.2732,-6.2866,-6.2856,-6.2957,-6.3003,-6.2955,-6.3069,-6.3107,-6.3186,-6.3218,-6.3171,-6.3339,-6.3371,-6.3524,-6.3573,-6.3605,-6.3635,-6.3579,-6.3798,-6.3819,-6.3838,-6.3907,-6.3934,-6.3608,-6.3607,-6.3607,-6.3606,0,-6.2973,-6.3066,-6.315,-6.3231,-6.3286,-6.3393,-6.3397,-6.3453,-6.3437,-6.3448,-6.3574,-6.3612,-6.3692,-6.3726,-6.3711,-6.3876,-6.3849,-6.38,-6.3715,-6.3874,-6.3938,-6.3965,-6.3618,-6.3616,-6.3614,-6.3612,0,0,-6.3222,-6.3295,-6.3326,-6.3362,-6.3423,-6.3494,-6.3597,-6.3678,-6.3727,-6.3782,-6.3868,-6.3983,-6.3939,-6.3982,-6.397,-6.4042,-6.4201,-6.3984,-6.3985,-6.4024,-6.4385,-6.4422,-6.4453,-6.4176,-6.4181,-6.4185,-6.4381,0,-6.3414,-6.3598,-6.3592,-6.3763,-6.3848,-6.3803,-6.3893,-6.394,-6.3953,-6.4025,-6.4038,-6.412,-6.4055,-6.4081,-6.415,-6.4167,-6.4273,-6.4152,-6.4255,-6.4259,-6.4244,-6.4487,-6.4527,-6.471,-6.4406,-6.441,-6.4413,0,-6.3664,-6.373,-6.3911,-6.3959,-6.3995,-6.4077,-6.4149,-6.422,-6.427,-6.4274,-6.4323,-6.4299,-6.4402,-6.4314,-6.4455,-6.4373,-6.4414,-6.4428,-6.4435,-6.4445,-6.4347,-6.4504,-6.4768,-6.4796,-6.4453,-6.445,-6.4447,0,-6.3828,-6.3962,-6.4087,-6.4119,-6.4179,-6.4237,-6.4264,-6.431,-6.4359,-6.4421,-6.4452,-6.4525,-6.4566,-6.4622,-6.4617,-6.4553,-6.4761,-6.4672,-6.4766,-6.4767,-6.4813,-6.481,-6.5088,-6.4838,-6.4838,-6.4837,-6.4836,0,-6.4044,-6.4156,-6.4162,-6.4239,-6.4363,-6.4353,-6.4475,-6.4495,-6.4537,-6.4615,-6.458,-6.4654,-6.4644,-6.4718,-6.4715,-6.4832,-6.485,-6.4855,-6.4853,-6.4859,-6.4859,-6.4887,-6.4874,-6.4844,-6.4843,-6.4841,-6.484,0,-6.4249,-6.4258,-6.4391,-6.4437,-6.4451,-6.4541,-6.4579,-6.4651,-6.466,-6.4761,-6.4784,-6.4798,-6.4884,-6.4885,-6.4982,-6.4979,-6.5123,-6.5106,-6.5107,-6.5104,-6.5199,-6.519,-6.5505,-6.5546,-6.5269,-6.5271,-6.5274,0,-6.4387,-6.4473,-6.4528,-6.458,-6.4611,-6.4694,-6.4744,-6.4737,-6.479,-6.4854,-6.4918,-6.5,-6.5066,-6.5204,-6.5222,-6.5295,-6.528,-6.5386,-6.5291,-6.5295,-6.5283,-6.5278,-6.5287,-6.5404,-6.5407,-6.541,-6.5412,0,-6.4631,-6.4632,-6.4706,-6.4783,-6.4844,-6.4903,-6.4958,-6.5001,-6.4999,-6.506,-6.5148,-6.5199,-6.5299,-6.5381,-6.5452,-6.5477,-6.5445,-6.5441,-6.5467,-6.5475,-6.5473,-6.5476,-6.5159,-6.5435,-6.5432,-6.5431,-6.5429,-6.5428,-6.4808,-6.4882,-6.4933,-6.5017,-6.5058,-6.511,-6.518,-6.5199,-6.5273,-6.5356,-6.5345,-6.5444,-6.549,-6.5583,-6.5615,-6.569,-6.5653,-6.569,-6.57,-6.5709,-6.572,-6.546,-6.5702,-6.5701,-6.5701,-6.57,-6.57,0,-6.5051,-6.5082,-6.5159,-6.5238,-6.5304,-6.5269,-6.5327,-6.5384,-6.5472,-6.5519,-6.5585,-6.5686,-6.5765,-6.5789,-6.5865,-6.592,-6.5907,-6.5941,-6.5937,-6.5943,-6.5748,-6.5719,-6.595,-6.595,-6.595,-6.595,-6.595,-6.595,-6.5186,-6.5309,-6.5315,-6.5458,-6.5487,-6.5585,-6.5621,-6.5668,-6.5707,-6.5822,-6.5888,-6.5904,-6.5942,-6.602,-6.6091,-6.6095,-6.6125,-6.6165,-6.6164,-6.5982,-6.5957,-6.5933,-6.5905,-6.6172,-6.6172,-6.6353,-6.6354,-6.6356]}]]